Weather History for Kaneohe MCBH, HI

Change the Weather History Date:

Friday, November 8, 2013

  Actual Average Record
Temperature  
Mean Temperature 80 °F -  
Max Temperature 84 °F 79 °F 84 °F (1997)
Min Temperature 75 °F 71 °F 69 °F (1996)
Cooling Degree Days 14    
Growing Degree Days 30 (Base 50)    
Moisture  
Dew Point 69 °F    
Average Humidity 73    
Maximum Humidity 83    
Minimum Humidity 62    
Precipitation  
Precipitation 0.00 in - - ()
Sea Level Pressure  
Sea Level Pressure 29.95 in    
Wind  
Wind Speed 4 mph (ENE)    
Max Wind Speed 12 mph    
Max Gust Speed 21 mph    
Visibility 7 miles    
Events Rain    
Averages and records for this station are not official NWS values.
T = Trace of Precipitation, MM = Missing Value Source: NWS Daily Summary

Daily Weather History Graph

Daily Weather History Graph

Search for Another Location

Airport:

Trip Planner

Search our weather history database for the weather conditions in past years. The results will help you decide how hot, cold, wet, or windy it might be!

Date:

Astronomy

Nov. 08, 2013 Rise Set
Actual Time 6:38 AM HST 5:51 PM HST
Civil Twilight 6:15 AM HST 6:14 PM HST
Nautical Twilight 5:48 AM HST 6:41 PM HST
Astronomical Twilight 5:21 AM HST 7:07 PM HST
Moon 11:43 AM HST (11/8) 11:21 PM HST (11/8)
Length of Visible Light 11h 59m
Length of Day
11h 13m
Waxing Crescent, 35% of the Moon is Illuminated
Nov 8
Waxing Crescent
Nov 9
First Quarter
Nov 17
Full
Nov 25
Last Quarter
Dec 2
New

Hourly Weather History & Observations

Time (HST) Temp. Heat Index Dew Point Humidity Pressure Visibility Wind Dir Wind Speed Gust Speed Precip Events Conditions
12:57 AM 76.1 °F - 70.0 °F 81% 29.96 in 9.0 mi East 3.5 mph - N/A   Mostly Cloudy
1:04 AM 77.0 °F - 69.8 °F 78% 29.97 in 6.2 mi East 5.8 mph - N/A   Mostly Cloudy
1:23 AM 77.0 °F - 69.8 °F 78% 29.97 in 6.2 mi Variable 5.8 mph - N/A   Overcast
1:32 AM 77.0 °F - 69.8 °F 78% 29.96 in 6.2 mi East 5.8 mph - N/A   Mostly Cloudy
1:57 AM 76.1 °F - 69.1 °F 79% 29.94 in 9.0 mi East 3.5 mph - N/A   Clear
2:44 AM 77.0 °F - 69.8 °F 78% 29.95 in 6.2 mi Calm Calm - N/A   Mostly Cloudy
2:57 AM 77.0 °F - 69.1 °F 76% 29.94 in 9.0 mi Calm Calm - N/A   Scattered Clouds
3:57 AM 78.8 °F - 68.0 °F 69% 29.94 in 9.0 mi Calm Calm - N/A   Partly Cloudy
4:19 AM 78.8 °F - 68.0 °F 69% 29.95 in 6.2 mi Calm Calm - N/A   Mostly Cloudy
4:49 AM 78.8 °F - 68.0 °F 69% 29.95 in 6.2 mi Calm Calm - N/A   Scattered Clouds
4:57 AM 78.8 °F - 68.0 °F 69% 29.94 in 7.0 mi Calm Calm - N/A   Scattered Clouds
5:57 AM 78.8 °F - 66.9 °F 67% 29.95 in 9.0 mi Calm Calm - N/A   Partly Cloudy
6:57 AM 79.3 °F - 69.1 °F 71% 29.96 in 8.0 mi Calm Calm - N/A   Scattered Clouds
7:57 AM 79.2 °F - 69.1 °F 71% 29.98 in 8.0 mi Calm Calm - N/A   Scattered Clouds
8:57 AM 80.6 °F 84.7 °F 72.0 °F 75% 29.99 in 7.0 mi WNW 3.5 mph - N/A   Scattered Clouds
9:04 AM 80.6 °F 84.6 °F 71.6 °F 74% 30.00 in 6.2 mi WNW 3.5 mph - N/A   Overcast
9:57 AM 80.6 °F 84.7 °F 72.0 °F 75% 29.99 in 7.0 mi ENE 4.6 mph - N/A   Mostly Cloudy
10:34 AM 80.6 °F 84.6 °F 71.6 °F 74% 30.00 in 6.2 mi NE 4.6 mph - N/A   Overcast
10:57 AM 82.4 °F 86.7 °F 71.1 °F 68% 29.97 in 7.0 mi ENE 5.8 mph - N/A   Mostly Cloudy
11:22 AM 82.4 °F 87.2 °F 71.6 °F 70% 29.97 in 6.2 mi East 6.9 mph - N/A   Scattered Clouds
11:57 AM 82.4 °F 86.7 °F 71.1 °F 68% 29.94 in 9.0 mi NE 8.1 mph - N/A   Scattered Clouds
12:57 PM 82.4 °F 86.3 °F 70.0 °F 66% 29.91 in 7.0 mi NE 8.1 mph - N/A   Scattered Clouds
1:57 PM 82.4 °F 86.3 °F 70.0 °F 66% 29.89 in 8.0 mi NE 9.2 mph - N/A   Scattered Clouds
2:57 PM 82.4 °F 85.8 °F 69.1 °F 64% 29.89 in 8.0 mi NNE 6.9 mph - N/A   Partly Cloudy
3:57 PM 84.2 °F 88.4 °F 70.0 °F 62% 29.89 in 8.0 mi NE 6.9 mph - N/A   Scattered Clouds
4:57 PM - - - N/A% 29.90 in 6.0 mi ENE 5.8 mph - N/A   Haze
5:57 PM 80.6 °F 83.6 °F 69.1 °F 68% 29.91 in 7.0 mi East 5.8 mph - N/A   Overcast
6:57 PM 78.8 °F - 68.0 °F 69% 29.92 in 8.0 mi East 9.2 mph - N/A   Overcast
7:47 PM 77.0 °F - 66.2 °F 69% 29.95 in - ENE 11.5 mph 19.6 mph N/A Rain Light Rain
7:54 PM 77.0 °F - 66.2 °F 69% 29.96 in 1.2 mi ENE 10.4 mph 20.7 mph N/A Rain Light Rain
7:57 PM 77.0 °F - 66.9 °F 71% 29.95 in 1.0 mi ENE 11.5 mph 20.7 mph N/A Rain Heavy Rain
8:05 PM - - - N/A% 29.96 in 1.0 mi ENE 6.9 mph 17.3 mph N/A Rain Rain
8:09 PM - - - N/A% 29.96 in 1.5 mi ENE 8.1 mph - N/A Rain Rain
8:18 PM - - - N/A% 29.96 in - ENE 8.1 mph 19.6 mph N/A Rain Rain
8:24 PM - - - N/A% 29.97 in - ESE 10.4 mph 18.4 mph N/A Rain Light Rain
8:57 PM 77.0 °F - 68.0 °F 74% 29.96 in 6.0 mi ENE 6.9 mph 17.3 mph N/A Rain Light Rain
9:57 PM 75.2 °F - 69.1 °F 81% 29.95 in 6.0 mi East 6.9 mph - N/A   Haze
10:57 PM 75.2 °F - 69.1 °F 81% 29.95 in 7.0 mi Calm Calm - N/A   Partly Cloudy
11:35 PM 75.2 °F - 69.8 °F 83% 29.94 in 6.2 mi ENE 8.1 mph - N/A   Mostly Cloudy
11:57 PM 75.2 °F - 69.1 °F 81% 29.93 in 8.0 mi East 5.8 mph - N/A   Mostly Cloudy